Location: Beugnon
(47.6222°N, 3.7850°E)
Time: 02:51:13
(UTC+00:00)

CZ-2C R/B - Pass Details

Date: 09 April 2020
Orbit: 785 x 870 km, 98.3° (Epoch: 04 June)

Event Time Altitude Azimuth Distance (km) Brightness Sun altitude
Rises 20:57:05 0° 7° (N) 3,290 6.3 -23.0°
Reaches altitude 10° 20:59:31 10° 1° (N) 2,357 5.6 -23.3°
Maximum altitude 21:04:20 40° 293° (WNW) 1,156 3.8 -23.9°
Drops below altitude 10° 21:09:08 10° 225° (SW) 2,360 5.0 -24.4°
Sets 21:11:35 0° 218° (SW) 3,295 5.7 -24.7°
